Time,TemperatureF,DewpointF,PressureIn,WindDirection,WindDirectionDegrees,WindSpeedMPH,WindSpeedGustMPH,Humidity,HourlyPrecipIn,Conditions,Clouds,dailyrainin,SoftwareType,DateUTC
2013-08-27 00:00:00,66.8,0.0,29.78,SSW,203,0.0,0.0,0,0.00,,,0.00,WUHU216HW,2013-08-27 04:00:00,
2013-08-27 00:05:00,66.6,0.0,29.78,SSW,203,0.0,0.0,0,0.00,,,0.00,WUHU216HW,2013-08-27 04:05:00,
2013-08-27 00:10:00,66.6,0.0,29.77,SSW,203,0.0,0.0,0,0.00,,,0.00,WUHU216HW,2013-08-27 04:10:00,
2013-08-27 00:15:00,66.6,0.0,29.77,SSW,203,0.0,0.0,0,0.00,,,0.00,WUHU216HW,2013-08-27 04:15:00,
2013-08-27 00:20:00,66.8,0.0,29.77,SSW,203,0.0,0.0,0,0.00,,,0.00,WUHU216HW,2013-08-27 04:20:00,
2013-08-27 00:25:00,66.6,0.0,29.77,SSW,203,0.0,0.0,0,0.00,,,0.00,WUHU216HW,2013-08-27 04:25:00,
2013-08-27 00:30:00,66.8,0.0,29.77,SSW,203,0.0,0.0,0,0.00,,,0.00,WUHU216HW,2013-08-27 04:30:00,
2013-08-27 00:35:00,67.0,0.0,29.77,SSW,203,0.0,0.0,0,0.00,,,0.00,WUHU216HW,2013-08-27 04:35:00,
2013-08-27 00:40:00,67.0,0.0,29.78,WNW,293,0.0,0.9,0,0.00,,,0.00,WUHU216HW,2013-08-27 04:40:00,
2013-08-27 00:45:00,67.0,0.0,29.77,WNW,293,0.0,0.9,0,0.00,,,0.00,WUHU216HW,2013-08-27 04:45:00,
2013-08-27 00:50:00,67.0,0.0,29.77,NNE,23,0.4,0.4,0,0.00,,,0.00,WUHU216HW,2013-08-27 04:50:00,
2013-08-27 00:55:00,67.0,0.0,29.77,NNE,23,0.0,0.4,0,0.00,,,0.00,WUHU216HW,2013-08-27 04:55:00,
2013-08-27 01:00:00,67.0,0.0,29.77,NNE,23,0.0,0.4,0,0.00,,,0.00,WUHU216HW,2013-08-27 05:00:00,
2013-08-27 01:05:00,67.0,0.0,29.76,NNE,23,0.0,0.0,0,0.00,,,0.00,WUHU216HW,2013-08-27 05:05:00,
2013-08-27 01:10:00,67.0,0.0,29.76,NNE,23,0.0,0.0,0,0.00,,,0.00,WUHU216HW,2013-08-27 05:10:00,
2013-08-27 01:15:00,67.0,0.0,29.76,NNE,23,0.0,0.0,0,0.00,,,0.00,WUHU216HW,2013-08-27 05:15:00,
2013-08-27 01:20:00,67.0,0.0,29.75,NNE,23,0.0,0.0,0,0.00,,,0.00,WUHU216HW,2013-08-27 05:20:00,
2013-08-27 01:25:00,67.0,0.0,29.75,NNE,23,0.0,0.0,0,0.00,,,0.00,WUHU216HW,2013-08-27 05:25:00,
2013-08-27 01:30:00,67.0,0.0,29.75,North,0,0.0,0.0,0,0.00,,,0.00,WUHU216HW,2013-08-27 05:30:00,
2013-08-27 01:35:00,67.0,0.0,29.75,North,0,0.0,0.0,0,0.00,,,0.00,WUHU216HW,2013-08-27 05:35:00,
2013-08-27 01:40:00,67.0,0.0,29.74,North,0,0.0,0.0,0,0.00,,,0.00,WUHU216HW,2013-08-27 05:40:00,
2013-08-27 01:45:00,67.0,0.0,29.74,North,0,0.0,0.0,0,0.00,,,0.00,WUHU216HW,2013-08-27 05:45:00,
2013-08-27 01:50:00,67.0,0.0,29.74,North,0,0.0,0.0,0,0.00,,,0.00,WUHU216HW,2013-08-27 05:50:00,
2013-08-27 01:55:00,67.0,0.0,29.74,South,180,0.0,0.0,0,0.00,,,0.00,WUHU216HW,2013-08-27 05:55:00,
2013-08-27 02:00:00,67.0,0.0,29.73,South,180,0.0,0.0,0,0.00,,,0.00,WUHU216HW,2013-08-27 06:00:00,
2013-08-27 02:05:00,67.1,0.0,29.73,South,180,0.0,0.0,0,0.00,,,0.00,WUHU216HW,2013-08-27 06:05:00,
2013-08-27 02:10:00,67.1,0.0,29.73,South,180,0.0,0.2,0,0.00,,,0.00,WUHU216HW,2013-08-27 06:10:00,
2013-08-27 02:15:00,67.1,0.0,29.72,South,180,0.9,0.9,0,0.00,,,0.00,WUHU216HW,2013-08-27 06:15:00,
2013-08-27 02:20:00,67.1,0.0,29.72,SSW,203,0.4,0.9,0,0.00,,,0.00,WUHU216HW,2013-08-27 06:20:00,
2013-08-27 02:25:00,67.1,0.0,29.72,South,180,0.0,0.9,0,0.00,,,0.00,WUHU216HW,2013-08-27 06:25:00,
2013-08-27 02:30:00,67.1,0.0,29.72,SW,225,1.1,1.1,0,0.00,,,0.00,WUHU216HW,2013-08-27 06:30:00,
2013-08-27 02:35:00,67.1,0.0,29.71,SW,225,1.1,1.1,0,0.00,,,0.00,WUHU216HW,2013-08-27 06:35:00,
2013-08-27 02:40:00,67.3,0.0,29.71,SSW,203,1.1,1.1,0,0.00,,,0.00,WUHU216HW,2013-08-27 06:40:00,
2013-08-27 02:45:00,67.3,0.0,29.71,WSW,248,0.9,1.1,0,0.00,,,0.00,WUHU216HW,2013-08-27 06:45:00,
2013-08-27 02:50:00,67.3,0.0,29.71,SSE,158,0.9,1.1,0,0.00,,,0.00,WUHU216HW,2013-08-27 06:50:00,
2013-08-27 02:55:00,67.3,0.0,29.71,South,180,1.1,1.1,0,0.00,,,0.00,WUHU216HW,2013-08-27 06:55:00,
2013-08-27 03:00:00,67.3,0.0,29.71,SW,225,0.9,1.1,0,0.00,,,0.00,WUHU216HW,2013-08-27 07:00:00,
2013-08-27 03:05:00,67.3,0.0,29.71,SSW,203,0.4,1.1,0,0.00,,,0.00,WUHU216HW,2013-08-27 07:05:00,
2013-08-27 03:10:00,67.3,0.0,29.70,SSW,203,0.0,0.9,0,0.00,,,0.00,WUHU216HW,2013-08-27 07:10:00,
2013-08-27 03:15:00,67.3,0.0,29.70,SW,225,0.0,0.7,0,0.00,,,0.00,WUHU216HW,2013-08-27 07:15:00,
2013-08-27 03:20:00,67.5,0.0,29.70,SW,225,0.0,0.9,0,0.00,,,0.00,WUHU216HW,2013-08-27 07:20:00,
2013-08-27 03:25:00,67.5,0.0,29.69,SW,225,1.1,1.1,0,0.00,,,0.00,WUHU216HW,2013-08-27 07:25:00,
2013-08-27 03:30:00,67.5,0.0,29.69,SSE,158,2.5,2.5,0,0.00,,,0.00,WUHU216HW,2013-08-27 07:30:00,
2013-08-27 03:35:00,67.5,0.0,29.69,WSW,248,0.4,2.5,0,0.00,,,0.00,WUHU216HW,2013-08-27 07:35:00,
2013-08-27 03:41:00,67.5,0.0,29.69,WSW,248,0.0,2.5,0,0.00,,,0.00,WUHU216HW,2013-08-27 07:41:00,
2013-08-27 03:46:00,67.5,0.0,29.69,WSW,248,0.7,0.9,0,0.00,,,0.00,WUHU216HW,2013-08-27 07:46:00,
2013-08-27 03:51:00,67.5,0.0,29.69,WSW,248,0.0,0.9,0,0.00,,,0.00,WUHU216HW,2013-08-27 07:51:00,
2013-08-27 03:56:00,67.5,0.0,29.69,WSW,248,0.9,1.1,0,0.00,,,0.00,WUHU216HW,2013-08-27 07:56:00,
2013-08-27 04:01:00,67.7,0.0,29.68,SW,225,0.0,1.1,0,0.00,,,0.00,WUHU216HW,2013-08-27 08:01:00,
2013-08-27 04:06:00,67.7,0.0,29.68,SW,225,0.4,0.4,0,0.00,,,0.00,WUHU216HW,2013-08-27 08:06:00,
2013-08-27 04:11:00,67.7,0.0,29.68,South,180,1.3,1.3,0,0.00,,,0.00,WUHU216HW,2013-08-27 08:11:00,
2013-08-27 04:16:00,67.7,0.0,29.68,SSW,203,0.4,1.3,0,0.00,,,0.00,WUHU216HW,2013-08-27 08:16:00,
2013-08-27 04:21:00,67.7,0.0,29.68,SSW,203,1.1,1.3,0,0.00,,,0.00,WUHU216HW,2013-08-27 08:21:00,
2013-08-27 04:26:00,67.7,0.0,29.68,SSW,203,0.2,1.1,0,0.00,,,0.00,WUHU216HW,2013-08-27 08:26:00,
2013-08-27 04:31:00,67.7,0.0,29.68,SW,225,0.0,0.2,0,0.00,,,0.00,WUHU216HW,2013-08-27 08:31:00,
2013-08-27 04:36:00,67.7,0.0,29.68,SW,225,0.0,0.0,0,0.00,,,0.00,WUHU216HW,2013-08-27 08:36:00,
2013-08-27 04:41:00,67.7,0.0,29.68,SW,225,0.0,0.0,0,0.00,,,0.00,WUHU216HW,2013-08-27 08:41:00,
2013-08-27 04:46:00,67.7,0.0,29.68,SW,225,0.0,0.0,0,0.00,,,0.00,WUHU216HW,2013-08-27 08:46:00,
2013-08-27 04:51:00,67.7,0.0,29.68,SW,225,0.0,0.0,0,0.00,,,0.00,WUHU216HW,2013-08-27 08:51:00,
2013-08-27 04:56:00,67.9,0.0,29.68,SW,225,0.0,0.0,0,0.00,,,0.00,WUHU216HW,2013-08-27 08:56:00,
2013-08-27 05:01:00,67.7,0.0,29.68,SW,225,0.0,0.0,0,0.00,,,0.00,WUHU216HW,2013-08-27 09:01:00,
2013-08-27 05:06:00,67.7,0.0,29.68,SW,225,0.0,0.0,0,0.00,,,0.00,WUHU216HW,2013-08-27 09:06:00,
2013-08-27 05:11:00,67.9,0.0,29.68,SW,225,0.0,0.0,0,0.00,,,0.00,WUHU216HW,2013-08-27 09:11:00,
2013-08-27 05:16:00,67.9,0.0,29.68,SW,225,0.0,0.0,0,0.00,,,0.00,WUHU216HW,2013-08-27 09:16:00,
2013-08-27 05:21:00,67.9,0.0,29.68,SW,225,0.0,0.0,0,0.00,,,0.00,WUHU216HW,2013-08-27 09:21:00,
2013-08-27 05:26:00,67.9,0.0,29.68,SW,225,0.0,0.0,0,0.00,,,0.00,WUHU216HW,2013-08-27 09:26:00,
2013-08-27 05:31:00,67.9,0.0,29.68,SW,225,0.0,0.0,0,0.00,,,0.00,WUHU216HW,2013-08-27 09:31:00,
2013-08-27 05:36:00,67.9,0.0,29.68,SW,225,0.0,0.0,0,0.00,,,0.00,WUHU216HW,2013-08-27 09:36:00,
2013-08-27 05:41:00,67.9,0.0,29.68,SW,225,0.0,0.0,0,0.00,,,0.00,WUHU216HW,2013-08-27 09:41:00,
2013-08-27 05:46:00,67.9,0.0,29.68,SW,225,0.7,0.7,0,0.00,,,0.00,WUHU216HW,2013-08-27 09:46:00,
2013-08-27 05:51:00,67.9,0.0,29.68,SW,225,0.0,0.7,0,0.00,,,0.00,WUHU216HW,2013-08-27 09:51:00,
2013-08-27 05:56:00,67.9,0.0,29.68,SW,225,0.0,0.0,0,0.00,,,0.00,WUHU216HW,2013-08-27 09:56:00,
2013-08-27 06:01:00,67.9,0.0,29.69,SSW,203,0.0,0.9,0,0.00,,,0.00,WUHU216HW,2013-08-27 10:01:00,
2013-08-27 06:06:00,67.9,0.0,29.69,SW,225,0.4,0.9,0,0.00,,,0.00,WUHU216HW,2013-08-27 10:06:00,
2013-08-27 06:11:00,67.9,0.0,29.69,SW,225,0.4,0.4,0,0.00,,,0.00,WUHU216HW,2013-08-27 10:11:00,
2013-08-27 06:16:00,67.9,0.0,29.69,South,180,0.0,0.4,0,0.00,,,0.00,WUHU216HW,2013-08-27 10:16:00,
2013-08-27 06:21:00,67.7,0.0,29.69,NNW,338,0.7,0.7,0,0.00,,,0.00,WUHU216HW,2013-08-27 10:21:00,
2013-08-27 06:26:00,67.7,0.0,29.69,North,0,0.2,0.7,0,0.00,,,0.00,WUHU216HW,2013-08-27 10:26:00,
2013-08-27 06:31:00,67.5,0.0,29.69,East,90,1.3,1.3,0,0.00,,,0.00,WUHU216HW,2013-08-27 10:31:00,
2013-08-27 06:36:00,67.5,0.0,29.69,North,0,0.0,1.3,0,0.00,,,0.00,WUHU216HW,2013-08-27 10:36:00,
2013-08-27 06:41:00,67.3,0.0,29.69,NNE,23,0.0,1.1,0,0.00,,,0.00,WUHU216HW,2013-08-27 10:41:00,
2013-08-27 06:46:00,67.3,0.0,29.69,NW,315,0.4,1.1,0,0.00,,,0.00,WUHU216HW,2013-08-27 10:46:00,
2013-08-27 06:51:00,67.3,0.0,29.69,NNE,23,0.9,0.9,0,0.00,,,0.00,WUHU216HW,2013-08-27 10:51:00,
2013-08-27 06:56:00,67.3,0.0,29.70,NNE,23,0.0,0.9,0,0.00,,,0.00,WUHU216HW,2013-08-27 10:56:00,
2013-08-27 07:01:00,67.3,0.0,29.70,SW,225,0.2,0.9,0,0.00,,,0.00,WUHU216HW,2013-08-27 11:01:00,
2013-08-27 07:06:00,67.3,0.0,29.70,NE,45,0.0,0.2,0,0.00,,,0.00,WUHU216HW,2013-08-27 11:06:00,
2013-08-27 07:11:00,67.3,0.0,29.70,NE,45,0.0,0.0,0,0.00,,,0.00,WUHU216HW,2013-08-27 11:11:00,
2013-08-27 07:16:00,67.3,0.0,29.70,NE,45,0.0,0.0,0,0.00,,,0.00,WUHU216HW,2013-08-27 11:16:00,
2013-08-27 07:21:00,67.5,0.0,29.70,North,0,0.4,0.4,0,0.00,,,0.00,WUHU216HW,2013-08-27 11:21:00,
2013-08-27 07:26:00,67.5,0.0,29.70,North,0,0.0,0.4,0,0.00,,,0.00,WUHU216HW,2013-08-27 11:26:00,
2013-08-27 07:31:00,67.5,0.0,29.70,North,0,0.0,0.9,0,0.00,,,0.00,WUHU216HW,2013-08-27 11:31:00,
2013-08-27 07:36:00,67.5,0.0,29.70,North,0,0.0,0.9,0,0.00,,,0.00,WUHU216HW,2013-08-27 11:36:00,
2013-08-27 07:41:00,67.5,0.0,29.70,NNE,23,0.0,0.0,0,0.00,,,0.00,WUHU216HW,2013-08-27 11:41:00,
2013-08-27 07:46:00,67.7,0.0,29.71,NE,45,0.0,0.9,0,0.00,,,0.00,WUHU216HW,2013-08-27 11:46:00,
2013-08-27 07:51:00,67.7,0.0,29.71,NNE,23,0.0,0.9,0,0.00,,,0.00,WUHU216HW,2013-08-27 11:51:00,
2013-08-27 07:56:00,67.9,0.0,29.71,ENE,68,0.0,0.4,0,0.00,,,0.00,WUHU216HW,2013-08-27 11:56:00,
2013-08-27 08:01:00,67.9,0.0,29.71,ENE,68,0.4,0.4,0,0.00,,,0.00,WUHU216HW,2013-08-27 12:01:00,
2013-08-27 08:06:00,67.9,0.0,29.72,ENE,68,0.0,0.4,0,0.00,,,0.00,WUHU216HW,2013-08-27 12:06:00,
2013-08-27 08:11:00,68.0,0.0,29.72,East,90,0.4,0.4,0,0.00,,,0.00,WUHU216HW,2013-08-27 12:11:00,
2013-08-27 08:16:00,68.0,0.0,29.72,NE,45,2.2,2.2,0,0.00,,,0.00,WUHU216HW,2013-08-27 12:16:00,
2013-08-27 08:21:00,67.9,0.0,29.72,North,0,0.0,2.2,0,0.00,,,0.00,WUHU216HW,2013-08-27 12:21:00,
2013-08-27 08:26:00,67.9,0.0,29.72,North,0,0.4,2.2,0,0.00,,,0.00,WUHU216HW,2013-08-27 12:26:00,
2013-08-27 08:31:00,67.9,0.0,29.72,South,180,0.0,1.1,0,0.00,,,0.00,WUHU216HW,2013-08-27 12:31:00,
2013-08-27 08:36:00,68.0,0.0,29.73,ESE,113,0.0,1.1,0,0.00,,,0.00,WUHU216HW,2013-08-27 12:36:00,
2013-08-27 08:41:00,68.0,0.0,29.73,South,180,0.4,1.8,0,0.00,,,0.00,WUHU216HW,2013-08-27 12:41:00,
2013-08-27 08:46:00,68.0,0.0,29.73,WNW,293,0.0,1.8,0,0.00,,,0.00,WUHU216HW,2013-08-27 12:46:00,
2013-08-27 08:51:00,68.0,0.0,29.73,East,90,1.1,2.5,0,0.00,,,0.00,WUHU216HW,2013-08-27 12:51:00,
2013-08-27 08:56:00,68.0,0.0,29.74,East,90,0.4,2.5,0,0.00,,,0.00,WUHU216HW,2013-08-27 12:56:00,
2013-08-27 09:01:00,68.0,0.0,29.73,South,180,0.0,1.1,0,0.00,,,0.00,WUHU216HW,2013-08-27 13:01:00,
2013-08-27 09:06:00,68.2,0.0,29.73,SSW,203,1.3,1.3,0,0.00,,,0.00,WUHU216HW,2013-08-27 13:06:00,
2013-08-27 09:11:00,68.6,0.0,29.73,SSE,158,0.7,1.3,0,0.00,,,0.00,WUHU216HW,2013-08-27 13:11:00,
2013-08-27 09:16:00,69.1,0.0,29.73,SW,225,2.2,2.2,0,0.00,,,0.00,WUHU216HW,2013-08-27 13:16:00,
2013-08-27 09:21:00,69.5,0.0,29.73,ESE,113,1.3,2.9,0,0.00,,,0.00,WUHU216HW,2013-08-27 13:21:00,
2013-08-27 09:26:00,70.0,0.0,29.73,SE,135,0.9,2.9,0,0.00,,,0.00,WUHU216HW,2013-08-27 13:26:00,
2013-08-27 09:31:00,70.2,0.0,29.73,NW,315,0.7,1.8,0,0.00,,,0.00,WUHU216HW,2013-08-27 13:31:00,
2013-08-27 09:36:00,70.7,0.0,29.74,North,0,1.1,1.1,0,0.00,,,0.00,WUHU216HW,2013-08-27 13:36:00,
2013-08-27 09:41:00,72.0,0.0,29.74,ENE,68,2.5,2.5,0,0.00,,,0.00,WUHU216HW,2013-08-27 13:41:00,
2013-08-27 09:46:00,72.2,0.0,29.74,NE,45,1.3,2.5,0,0.00,,,0.00,WUHU216HW,2013-08-27 13:46:00,
2013-08-27 09:51:00,71.8,0.0,29.74,NNE,23,1.1,2.9,0,0.00,,,0.00,WUHU216HW,2013-08-27 13:51:00,
2013-08-27 09:56:00,72.4,0.0,29.74,WSW,248,1.8,2.9,0,0.00,,,0.00,WUHU216HW,2013-08-27 13:56:00,
2013-08-27 10:01:00,72.9,0.0,29.74,NNW,338,1.8,2.5,0,0.00,,,0.00,WUHU216HW,2013-08-27 14:01:00,
2013-08-27 10:06:00,73.3,0.0,29.74,East,90,0.9,2.7,0,0.00,,,0.00,WUHU216HW,2013-08-27 14:06:00,
2013-08-27 10:11:00,74.0,0.0,29.74,NE,45,1.3,2.7,0,0.00,,,0.00,WUHU216HW,2013-08-27 14:11:00,
2013-08-27 10:16:00,74.3,0.0,29.74,NE,45,1.3,2.7,0,0.00,,,0.00,WUHU216HW,2013-08-27 14:16:00,
2013-08-27 10:21:00,75.1,0.0,29.74,NE,45,1.6,3.1,0,0.00,,,0.00,WUHU216HW,2013-08-27 14:21:00,
2013-08-27 10:26:00,74.7,0.0,29.74,West,270,2.0,4.0,0,0.00,,,0.00,WUHU216HW,2013-08-27 14:26:00,
2013-08-27 10:31:00,74.5,0.0,29.74,East,90,2.0,4.0,0,0.00,,,0.00,WUHU216HW,2013-08-27 14:31:00,
2013-08-27 10:36:00,74.3,0.0,29.74,South,180,2.7,2.7,0,0.00,,,0.00,WUHU216HW,2013-08-27 14:36:00,
2013-08-27 10:41:00,75.4,0.0,29.74,ESE,113,2.5,2.7,0,0.00,,,0.00,WUHU216HW,2013-08-27 14:41:00,
2013-08-27 10:46:00,75.6,0.0,29.74,NNE,23,0.4,2.5,0,0.00,,,0.00,WUHU216HW,2013-08-27 14:46:00,
2013-08-27 10:51:00,75.2,0.0,29.74,SSE,158,0.9,5.6,0,0.00,,,0.00,WUHU216HW,2013-08-27 14:51:00,
2013-08-27 10:56:00,75.6,0.0,29.75,NNE,23,0.4,5.6,0,0.00,,,0.00,WUHU216HW,2013-08-27 14:56:00,
2013-08-27 11:01:00,75.8,0.0,29.75,SSW,203,1.1,2.5,0,0.00,,,0.00,WUHU216HW,2013-08-27 15:01:00,
2013-08-27 11:07:00,76.0,0.0,29.75,SSW,203,0.9,2.5,0,0.00,,,0.00,WUHU216HW,2013-08-27 15:07:00,
2013-08-27 11:12:00,76.0,0.0,29.74,NW,315,2.9,2.9,0,0.00,,,0.00,WUHU216HW,2013-08-27 15:12:00,
2013-08-27 11:17:00,77.0,0.0,29.75,SSE,158,1.6,2.9,0,0.00,,,0.00,WUHU216HW,2013-08-27 15:17:00,
2013-08-27 11:22:00,77.4,0.0,29.75,NNW,338,2.7,2.7,0,0.00,,,0.00,WUHU216HW,2013-08-27 15:22:00,
2013-08-27 11:27:00,76.3,0.0,29.75,NE,45,1.1,2.7,0,0.00,,,0.00,WUHU216HW,2013-08-27 15:27:00,
2013-08-27 11:32:00,76.0,0.0,29.75,SSW,203,0.4,2.7,0,0.00,,,0.00,WUHU216HW,2013-08-27 15:32:00,
2013-08-27 11:37:00,76.3,0.0,29.75,NNW,338,1.1,2.5,0,0.00,,,0.00,WUHU216HW,2013-08-27 15:37:00,
2013-08-27 11:42:00,76.9,0.0,29.75,ENE,68,1.8,2.7,0,0.00,,,0.00,WUHU216HW,2013-08-27 15:42:00,
2013-08-27 11:47:00,77.6,0.0,29.76,ENE,68,2.2,3.1,0,0.00,,,0.00,WUHU216HW,2013-08-27 15:47:00,
2013-08-27 11:52:00,77.2,0.0,29.75,NNW,338,1.1,3.1,0,0.00,,,0.00,WUHU216HW,2013-08-27 15:52:00,
2013-08-27 11:57:00,76.3,0.0,29.76,NNW,338,2.5,5.1,0,0.00,,,0.00,WUHU216HW,2013-08-27 15:57:00,
2013-08-27 12:02:00,75.6,0.0,29.76,NW,315,0.0,5.1,0,0.00,,,0.00,WUHU216HW,2013-08-27 16:02:00,
2013-08-27 12:07:00,75.8,0.0,29.76,SE,135,0.9,2.5,0,0.00,,,0.00,WUHU216HW,2013-08-27 16:07:00,
2013-08-27 12:12:00,76.3,0.0,29.76,NNE,23,1.3,3.6,0,0.00,,,0.00,WUHU216HW,2013-08-27 16:12:00,
2013-08-27 12:17:00,77.2,0.0,29.76,NE,45,1.8,3.6,0,0.00,,,0.00,WUHU216HW,2013-08-27 16:17:00,
2013-08-27 12:22:00,77.9,0.0,29.75,South,180,3.4,3.4,0,0.00,,,0.00,WUHU216HW,2013-08-27 16:22:00,
2013-08-27 12:27:00,78.3,0.0,29.75,West,270,1.6,3.4,0,0.00,,,0.00,WUHU216HW,2013-08-27 16:27:00,
2013-08-27 12:32:00,78.8,0.0,29.75,NE,45,3.1,3.1,0,0.00,,,0.00,WUHU216HW,2013-08-27 16:32:00,
2013-08-27 12:37:00,79.2,0.0,29.75,NNW,338,0.7,3.1,0,0.00,,,0.00,WUHU216HW,2013-08-27 16:37:00,
2013-08-27 12:42:00,79.6,0.0,29.75,NNW,338,0.7,2.2,0,0.00,,,0.00,WUHU216HW,2013-08-27 16:42:00,
2013-08-27 12:47:00,80.1,0.0,29.75,ESE,113,1.8,2.5,0,0.00,,,0.00,WUHU216HW,2013-08-27 16:47:00,
2013-08-27 12:52:00,79.7,0.0,29.75,NNE,23,1.1,2.5,0,0.00,,,0.00,WUHU216HW,2013-08-27 16:52:00,
2013-08-27 12:57:00,79.7,0.0,29.75,WNW,293,0.4,2.9,0,0.00,,,0.00,WUHU216HW,2013-08-27 16:57:00,
2013-08-27 13:02:00,80.3,0.0,29.75,WNW,293,3.4,3.4,0,0.00,,,0.00,WUHU216HW,2013-08-27 17:02:00,
2013-08-27 13:07:00,80.3,0.0,29.75,ENE,68,1.1,3.4,0,0.00,,,0.00,WUHU216HW,2013-08-27 17:07:00,
2013-08-27 13:12:00,80.1,0.0,29.75,North,0,2.2,4.0,0,0.00,,,0.00,WUHU216HW,2013-08-27 17:12:00,
2013-08-27 13:17:00,80.1,0.0,29.75,SSW,203,0.9,4.0,0,0.00,,,0.00,WUHU216HW,2013-08-27 17:17:00,
2013-08-27 13:22:00,80.3,0.0,29.75,ENE,68,2.9,2.9,0,0.00,,,0.00,WUHU216HW,2013-08-27 17:22:00,
2013-08-27 13:27:00,80.6,0.0,29.75,SSE,158,0.0,2.9,0,0.00,,,0.00,WUHU216HW,2013-08-27 17:27:00,
2013-08-27 13:32:00,81.2,0.0,29.75,WNW,293,0.9,2.9,0,0.00,,,0.00,WUHU216HW,2013-08-27 17:32:00,
2013-08-27 13:37:00,81.4,0.0,29.75,NNE,23,1.8,2.9,0,0.00,,,0.00,WUHU216HW,2013-08-27 17:37:00,
2013-08-27 13:42:00,80.6,0.0,29.75,North,0,0.9,2.9,0,0.00,,,0.00,WUHU216HW,2013-08-27 17:42:00,
2013-08-27 13:47:00,81.4,0.0,29.75,ENE,68,2.0,2.2,0,0.00,,,0.00,WUHU216HW,2013-08-27 17:47:00,
2013-08-27 13:52:00,82.1,0.0,29.75,ESE,113,1.8,2.5,0,0.00,,,0.00,WUHU216HW,2013-08-27 17:52:00,
2013-08-27 13:57:00,82.1,0.0,29.75,NW,315,1.8,2.5,0,0.00,,,0.00,WUHU216HW,2013-08-27 17:57:00,
2013-08-27 14:02:00,82.1,0.0,29.75,SE,135,1.1,3.4,0,0.00,,,0.00,WUHU216HW,2013-08-27 18:02:00,
2013-08-27 14:07:00,82.4,0.0,29.75,SW,225,1.6,3.4,0,0.00,,,0.00,WUHU216HW,2013-08-27 18:07:00,
2013-08-27 14:12:00,82.6,0.0,29.75,East,90,3.4,3.4,0,0.00,,,0.00,WUHU216HW,2013-08-27 18:12:00,
2013-08-27 14:17:00,83.2,0.0,29.75,NW,315,2.5,3.4,0,0.00,,,0.00,WUHU216HW,2013-08-27 18:17:00,
2013-08-27 14:22:00,83.2,0.0,29.75,NW,315,1.1,3.4,0,0.00,,,0.00,WUHU216HW,2013-08-27 18:22:00,
2013-08-27 14:27:00,83.3,0.0,29.75,NE,45,2.0,3.4,0,0.00,,,0.00,WUHU216HW,2013-08-27 18:27:00,
2013-08-27 14:32:00,83.2,0.0,29.75,South,180,1.8,5.8,0,0.00,,,0.00,WUHU216HW,2013-08-27 18:32:00,
2013-08-27 14:37:00,83.0,0.0,29.75,NNW,338,0.4,5.8,0,0.00,,,0.00,WUHU216HW,2013-08-27 18:37:00,
2013-08-27 14:42:00,83.0,0.0,29.75,SE,135,0.7,2.9,0,0.00,,,0.00,WUHU216HW,2013-08-27 18:42:00,
2013-08-27 14:47:00,82.6,0.0,29.74,NW,315,2.5,2.9,0,0.00,,,0.00,WUHU216HW,2013-08-27 18:47:00,
2013-08-27 14:52:00,82.6,0.0,29.74,NNE,23,2.0,2.5,0,0.00,,,0.00,WUHU216HW,2013-08-27 18:52:00,
2013-08-27 14:57:00,82.3,0.0,29.74,West,270,1.1,2.5,0,0.00,,,0.00,WUHU216HW,2013-08-27 18:57:00,
2013-08-27 15:02:00,82.4,0.0,29.74,SE,135,1.6,2.2,0,0.00,,,0.00,WUHU216HW,2013-08-27 19:02:00,
2013-08-27 15:07:00,82.4,0.0,29.74,North,0,0.9,2.2,0,0.00,,,0.00,WUHU216HW,2013-08-27 19:07:00,
2013-08-27 15:12:00,81.9,0.0,29.73,North,0,5.4,5.4,0,0.00,,,0.00,WUHU216HW,2013-08-27 19:12:00,
2013-08-27 15:17:00,80.3,0.0,29.73,SW,225,1.8,5.4,0,0.00,,,0.00,WUHU216HW,2013-08-27 19:17:00,
2013-08-27 15:22:00,80.3,0.0,29.73,SE,135,3.4,5.4,0,0.00,,,0.00,WUHU216HW,2013-08-27 19:22:00,
2013-08-27 15:27:00,80.5,0.0,29.73,ESE,113,1.8,3.4,0,0.00,,,0.00,WUHU216HW,2013-08-27 19:27:00,
2013-08-27 15:32:00,80.3,0.0,29.73,ENE,68,2.9,2.9,0,0.00,,,0.00,WUHU216HW,2013-08-27 19:32:00,
2013-08-27 15:37:00,80.3,0.0,29.72,East,90,2.2,3.8,0,0.00,,,0.00,WUHU216HW,2013-08-27 19:37:00,
2013-08-27 15:42:00,79.9,0.0,29.72,NW,315,0.7,3.8,0,0.00,,,0.00,WUHU216HW,2013-08-27 19:42:00,
2013-08-27 15:47:00,79.6,0.0,29.72,NW,315,1.6,2.2,0,0.00,,,0.00,WUHU216HW,2013-08-27 19:47:00,
2013-08-27 15:52:00,79.4,0.0,29.72,ESE,113,1.1,2.5,0,0.00,,,0.00,WUHU216HW,2013-08-27 19:52:00,
2013-08-27 15:57:00,79.2,0.0,29.72,ENE,68,1.1,2.7,0,0.00,,,0.00,WUHU216HW,2013-08-27 19:57:00,
2013-08-27 16:02:00,79.0,0.0,29.72,NW,315,0.2,2.7,0,0.00,,,0.00,WUHU216HW,2013-08-27 20:02:00,
2013-08-27 16:07:00,78.8,0.0,29.72,West,270,1.3,2.7,0,0.00,,,0.00,WUHU216HW,2013-08-27 20:07:00,
2013-08-27 16:12:00,78.8,0.0,29.72,SSW,203,1.3,2.7,0,0.00,,,0.00,WUHU216HW,2013-08-27 20:12:00,
2013-08-27 16:17:00,78.8,0.0,29.72,West,270,0.2,1.3,0,0.00,,,0.00,WUHU216HW,2013-08-27 20:17:00,
2013-08-27 16:22:00,78.8,0.0,29.72,South,180,0.9,1.3,0,0.00,,,0.00,WUHU216HW,2013-08-27 20:22:00,
2013-08-27 16:27:00,78.8,0.0,29.72,WNW,293,1.6,1.6,0,0.00,,,0.00,WUHU216HW,2013-08-27 20:27:00,
2013-08-27 16:32:00,78.1,0.0,29.72,NNW,338,1.1,2.5,0,0.00,,,0.00,WUHU216HW,2013-08-27 20:32:00,
2013-08-27 16:37:00,77.9,0.0,29.72,NNW,338,0.4,2.5,0,0.00,,,0.00,WUHU216HW,2013-08-27 20:37:00,
2013-08-27 16:42:00,77.8,0.0,29.72,NNE,23,0.0,0.7,0,0.00,,,0.00,WUHU216HW,2013-08-27 20:42:00,
2013-08-27 16:47:00,77.6,0.0,29.72,SSW,203,1.3,1.3,0,0.00,,,0.00,WUHU216HW,2013-08-27 20:47:00,
2013-08-27 16:52:00,77.8,0.0,29.72,SSW,203,0.0,1.3,0,0.00,,,0.00,WUHU216HW,2013-08-27 20:52:00,
2013-08-27 16:57:00,77.8,0.0,29.72,SSW,203,0.2,1.3,0,0.00,,,0.00,WUHU216HW,2013-08-27 20:57:00,
2013-08-27 17:02:00,77.8,0.0,29.72,SSW,203,0.7,0.7,0,0.00,,,0.00,WUHU216HW,2013-08-27 21:02:00,
2013-08-27 17:07:00,77.6,0.0,29.72,NNE,23,1.1,1.1,0,0.00,,,0.00,WUHU216HW,2013-08-27 21:07:00,
2013-08-27 17:12:00,77.6,0.0,29.72,ENE,68,0.4,1.1,0,0.00,,,0.00,WUHU216HW,2013-08-27 21:12:00,
2013-08-27 17:17:00,77.4,0.0,29.72,NNE,23,0.0,1.1,0,0.00,,,0.00,WUHU216HW,2013-08-27 21:17:00,
2013-08-27 17:22:00,77.2,0.0,29.72,NE,45,2.2,2.2,0,0.00,,,0.00,WUHU216HW,2013-08-27 21:22:00,
2013-08-27 17:27:00,77.0,0.0,29.73,NNE,23,1.3,2.2,0,0.00,,,0.00,WUHU216HW,2013-08-27 21:27:00,
2013-08-27 17:32:00,76.9,0.0,29.72,ENE,68,1.3,1.8,0,0.00,,,0.00,WUHU216HW,2013-08-27 21:32:00,
2013-08-27 17:37:00,76.7,0.0,29.73,ENE,68,0.9,2.5,0,0.00,,,0.00,WUHU216HW,2013-08-27 21:37:00,
2013-08-27 17:42:00,76.5,0.0,29.73,ENE,68,0.2,2.5,0,0.00,,,0.00,WUHU216HW,2013-08-27 21:42:00,
2013-08-27 17:47:00,76.3,0.0,29.73,ENE,68,0.0,1.1,0,0.00,,,0.00,WUHU216HW,2013-08-27 21:47:00,
2013-08-27 17:52:00,76.0,0.0,29.73,SE,135,0.2,1.1,0,0.00,,,0.00,WUHU216HW,2013-08-27 21:52:00,
2013-08-27 17:57:00,76.0,0.0,29.73,SE,135,0.0,1.1,0,0.00,,,0.00,WUHU216HW,2013-08-27 21:57:00,
2013-08-27 18:02:00,76.0,0.0,29.73,North,0,0.0,1.1,0,0.00,,,0.00,WUHU216HW,2013-08-27 22:02:00,
2013-08-27 18:07:00,75.6,0.0,29.73,North,0,0.0,0.9,0,0.00,,,0.00,WUHU216HW,2013-08-27 22:07:00,
2013-08-27 18:12:00,75.4,0.0,29.73,SE,135,0.0,0.0,0,0.00,,,0.00,WUHU216HW,2013-08-27 22:12:00,
2013-08-27 18:17:00,75.2,0.0,29.73,SE,135,0.0,0.0,0,0.00,,,0.00,WUHU216HW,2013-08-27 22:17:00,
2013-08-27 18:22:00,74.9,0.0,29.73,ENE,68,0.4,0.7,0,0.00,,,0.00,WUHU216HW,2013-08-27 22:22:00,
2013-08-27 18:27:00,74.7,0.0,29.73,NE,45,1.1,1.3,0,0.00,,,0.00,WUHU216HW,2013-08-27 22:27:00,
2013-08-27 18:32:00,74.2,0.0,29.73,North,0,0.0,1.3,0,0.00,,,0.00,WUHU216HW,2013-08-27 22:32:00,
2013-08-27 18:37:00,74.0,0.0,29.73,North,0,0.0,0.4,0,0.00,,,0.00,WUHU216HW,2013-08-27 22:37:00,
2013-08-27 18:42:00,73.8,0.0,29.73,North,0,0.0,0.0,0,0.00,,,0.00,WUHU216HW,2013-08-27 22:42:00,
2013-08-27 18:47:00,73.6,0.0,29.73,North,0,0.0,0.0,0,0.00,,,0.00,WUHU216HW,2013-08-27 22:47:00,
2013-08-27 18:52:00,73.1,0.0,29.73,North,0,0.0,0.0,0,0.00,,,0.00,WUHU216HW,2013-08-27 22:52:00,
2013-08-27 18:57:00,72.9,0.0,29.73,North,0,0.0,0.0,0,0.00,,,0.00,WUHU216HW,2013-08-27 22:57:00,
2013-08-27 19:02:00,72.5,0.0,29.74,North,0,0.0,0.0,0,0.00,,,0.00,WUHU216HW,2013-08-27 23:02:00,
2013-08-27 19:08:00,72.2,0.0,29.74,North,0,0.0,0.0,0,0.00,,,0.00,WUHU216HW,2013-08-27 23:08:00,
2013-08-27 19:13:00,71.8,0.0,29.74,North,0,0.0,0.0,0,0.00,,,0.00,WUHU216HW,2013-08-27 23:13:00,
2013-08-27 19:18:00,71.3,0.0,29.74,North,0,0.0,0.0,0,0.00,,,0.00,WUHU216HW,2013-08-27 23:18:00,
2013-08-27 19:23:00,71.1,0.0,29.74,North,0,0.0,0.0,0,0.00,,,0.00,WUHU216HW,2013-08-27 23:23:00,
2013-08-27 19:28:00,70.9,0.0,29.74,North,0,0.0,0.0,0,0.00,,,0.00,WUHU216HW,2013-08-27 23:28:00,
2013-08-27 19:33:00,70.6,0.0,29.74,North,0,0.0,0.0,0,0.00,,,0.00,WUHU216HW,2013-08-27 23:33:00,
2013-08-27 19:38:00,70.0,0.0,29.74,North,0,0.0,0.0,0,0.00,,,0.00,WUHU216HW,2013-08-27 23:38:00,
2013-08-27 19:43:00,69.7,0.0,29.74,North,0,0.0,0.0,0,0.00,,,0.00,WUHU216HW,2013-08-27 23:43:00,
2013-08-27 19:48:00,69.5,0.0,29.74,North,0,0.0,0.0,0,0.00,,,0.00,WUHU216HW,2013-08-27 23:48:00,
2013-08-27 19:53:00,69.1,0.0,29.75,North,0,0.0,0.0,0,0.00,,,0.00,WUHU216HW,2013-08-27 23:53:00,
2013-08-27 19:58:00,68.6,0.0,29.74,North,0,0.0,0.0,0,0.00,,,0.00,WUHU216HW,2013-08-27 23:58:00,
2013-08-27 20:03:00,68.2,0.0,29.75,North,0,0.0,0.0,0,0.00,,,0.00,WUHU216HW,2013-08-28 00:03:00,
2013-08-27 20:08:00,68.0,0.0,29.75,North,0,0.0,0.0,0,0.00,,,0.00,WUHU216HW,2013-08-28 00:08:00,
2013-08-27 20:13:00,67.7,0.0,29.75,North,0,0.0,0.0,0,0.00,,,0.00,WUHU216HW,2013-08-28 00:13:00,
2013-08-27 20:18:00,67.5,0.0,29.75,North,0,0.0,0.0,0,0.00,,,0.00,WUHU216HW,2013-08-28 00:18:00,
2013-08-27 20:23:00,67.5,0.0,29.75,North,0,0.0,0.0,0,0.00,,,0.00,WUHU216HW,2013-08-28 00:23:00,
2013-08-27 20:28:00,67.3,0.0,29.75,North,0,0.0,0.0,0,0.00,,,0.00,WUHU216HW,2013-08-28 00:28:00,
2013-08-27 20:33:00,67.3,0.0,29.75,North,0,0.0,0.0,0,0.00,,,0.00,WUHU216HW,2013-08-28 00:33:00,
2013-08-27 20:38:00,67.3,0.0,29.75,North,0,0.0,0.0,0,0.00,,,0.00,WUHU216HW,2013-08-28 00:38:00,
2013-08-27 20:43:00,67.0,0.0,29.75,North,0,0.0,0.0,0,0.00,,,0.00,WUHU216HW,2013-08-28 00:43:00,
2013-08-27 20:48:00,67.0,0.0,29.75,North,0,0.0,0.0,0,0.00,,,0.00,WUHU216HW,2013-08-28 00:48:00,
2013-08-27 20:53:00,66.8,0.0,29.75,North,0,0.0,0.0,0,0.00,,,0.00,WUHU216HW,2013-08-28 00:53:00,
2013-08-27 20:58:00,66.6,0.0,29.75,North,0,0.0,0.0,0,0.00,,,0.00,WUHU216HW,2013-08-28 00:58:00,
2013-08-27 21:03:00,66.4,0.0,29.75,North,0,0.0,0.0,0,0.00,,,0.00,WUHU216HW,2013-08-28 01:03:00,
2013-08-27 21:08:00,66.4,0.0,29.75,North,0,0.0,0.0,0,0.00,,,0.00,WUHU216HW,2013-08-28 01:08:00,
2013-08-27 21:13:00,66.4,0.0,29.75,North,0,0.0,0.0,0,0.00,,,0.00,WUHU216HW,2013-08-28 01:13:00,
2013-08-27 21:18:00,66.4,0.0,29.75,North,0,0.0,0.0,0,0.00,,,0.00,WUHU216HW,2013-08-28 01:18:00,
2013-08-27 21:23:00,66.2,0.0,29.76,North,0,0.0,0.0,0,0.00,,,0.00,WUHU216HW,2013-08-28 01:23:00,
2013-08-27 21:33:00,66.1,0.0,29.76,North,0,0.0,0.0,0,0.00,,,0.00,WUHU216HW,2013-08-28 01:33:00,
2013-08-27 21:38:00,66.1,0.0,29.76,North,0,0.0,0.0,0,0.00,,,0.00,WUHU216HW,2013-08-28 01:38:00,
2013-08-27 21:43:00,66.1,0.0,29.76,North,0,0.0,0.0,0,0.00,,,0.00,WUHU216HW,2013-08-28 01:43:00,
2013-08-27 21:48:00,66.1,0.0,29.76,North,0,0.0,0.0,0,0.00,,,0.00,WUHU216HW,2013-08-28 01:48:00,
2013-08-27 21:53:00,65.9,0.0,29.76,North,0,0.0,0.0,0,0.00,,,0.00,WUHU216HW,2013-08-28 01:53:00,
2013-08-27 21:58:00,65.9,0.0,29.77,North,0,0.0,0.0,0,0.00,,,0.00,WUHU216HW,2013-08-28 01:58:00,
2013-08-27 22:03:00,65.9,0.0,29.77,North,0,0.0,0.0,0,0.00,,,0.00,WUHU216HW,2013-08-28 02:03:00,
2013-08-27 22:08:00,65.7,0.0,29.77,North,0,0.0,0.0,0,0.00,,,0.00,WUHU216HW,2013-08-28 02:08:00,
2013-08-27 22:13:00,65.5,0.0,29.77,North,0,0.0,0.0,0,0.00,,,0.00,WUHU216HW,2013-08-28 02:13:00,
2013-08-27 22:18:00,65.5,0.0,29.77,North,0,0.0,0.0,0,0.00,,,0.00,WUHU216HW,2013-08-28 02:18:00,
2013-08-27 22:23:00,65.5,0.0,29.77,North,0,0.0,0.0,0,0.00,,,0.00,WUHU216HW,2013-08-28 02:23:00,
2013-08-27 22:28:00,65.7,0.0,29.77,North,0,0.0,0.0,0,0.00,,,0.00,WUHU216HW,2013-08-28 02:28:00,
2013-08-27 22:33:00,65.7,0.0,29.77,North,0,0.0,0.0,0,0.00,,,0.00,WUHU216HW,2013-08-28 02:33:00,
2013-08-27 22:38:00,65.7,0.0,29.77,North,0,0.0,0.0,0,0.00,,,0.00,WUHU216HW,2013-08-28 02:38:00,
2013-08-27 22:43:00,65.5,0.0,29.77,North,0,0.0,0.0,0,0.00,,,0.00,WUHU216HW,2013-08-28 02:43:00,
2013-08-27 22:48:00,65.7,0.0,29.77,North,0,0.0,0.0,0,0.00,,,0.00,WUHU216HW,2013-08-28 02:48:00,
2013-08-27 22:53:00,65.7,0.0,29.78,North,0,0.0,0.0,0,0.00,,,0.00,WUHU216HW,2013-08-28 02:53:00,
2013-08-27 22:58:00,65.5,0.0,29.78,North,0,0.0,0.0,0,0.00,,,0.00,WUHU216HW,2013-08-28 02:58:00,
2013-08-27 23:03:00,65.5,0.0,29.78,North,0,0.0,0.0,0,0.00,,,0.00,WUHU216HW,2013-08-28 03:03:00,
2013-08-27 23:08:00,65.3,0.0,29.78,North,0,0.0,0.0,0,0.00,,,0.00,WUHU216HW,2013-08-28 03:08:00,
2013-08-27 23:13:00,65.2,0.0,29.78,North,0,0.0,0.0,0,0.00,,,0.00,WUHU216HW,2013-08-28 03:13:00,
2013-08-27 23:18:00,65.2,0.0,29.78,North,0,0.0,0.0,0,0.00,,,0.00,WUHU216HW,2013-08-28 03:18:00,
2013-08-27 23:23:00,65.2,0.0,29.78,North,0,0.0,0.0,0,0.00,,,0.00,WUHU216HW,2013-08-28 03:23:00,
2013-08-27 23:28:00,65.2,0.0,29.78,North,0,0.0,0.0,0,0.00,,,0.00,WUHU216HW,2013-08-28 03:28:00,
2013-08-27 23:33:00,65.0,0.0,29.78,North,0,0.0,0.0,0,0.00,,,0.00,WUHU216HW,2013-08-28 03:33:00,
2013-08-27 23:38:00,64.8,0.0,29.78,North,0,0.0,0.0,0,0.00,,,0.00,WUHU216HW,2013-08-28 03:38:00,
2013-08-27 23:43:00,64.8,0.0,29.78,North,0,0.0,0.0,0,0.00,,,0.00,WUHU216HW,2013-08-28 03:43:00,
2013-08-27 23:48:00,64.8,0.0,29.78,North,0,0.0,0.0,0,0.00,,,0.00,WUHU216HW,2013-08-28 03:48:00,
2013-08-27 23:53:00,65.2,0.0,29.78,North,0,0.0,0.0,0,0.00,,,0.00,WUHU216HW,2013-08-28 03:53:00,
2013-08-27 23:58:00,65.5,0.0,29.78,North,0,0.0,0.0,0,0.00,,,0.00,WUHU216HW,2013-08-28 03:58:00,